sat.trackr.live / text

‹ back to catalog

STARLINK-32880

NORAD 62955 · 2025-029H

PAYLOAD ACTIVE UNKNOWN

§ Identity

Operator
Country
US
Launch date
2025-02-11
Launch site
AFWTR
Launch vehicle
Mass (kg)
RCS (m²)

Purposes: comms

External: N2YO · Heavens-Above · Gunter

§ Orbital elements

Epoch: 2026-09-21T15:37:31.596096Z

Period
94.01 min
Inclination
53.1615°
Eccentricity
0.0001172
Mean motion
15.31710349 rev/d
Perigee alt
469.9 km
Apogee alt
471.5 km
Semi-major
6,848.8 km
B*
6.3935e-4
RAAN
40.5703°
Arg perigee
76.9718°
Mean anomaly
283.1414°
Rev number
9,135

§ Raw data

STARLINK-328801 62955U 25029H   26264.65106014  .00019533  00000+0  63935-3 0  99972 62955  53.1615  40.5703 0001172  76.9718 283.1414 15.31710349 91353

JSON: /api/v1/satellites/62955 · /tle

For live sub-satellite position, see the globe view (requires WebGL).

§ Visibility from observer

Set your observer location to see the next 7 days of passes ≥ 10°. The values pass through the URL so the page stays shareable.

No JS? Fill the form by hand. The geolocation button needs JavaScript.